| time (UTC) | temp F | wind direction | speed MPH | gust MPH | rain 1hr in | rain 24hr in | rain mn in | humidity % | barometer mb |
| 20260510173006 | 68 | 132 | 1.0 | 2.0 | 0.00 | 0.00 | 0.00 | 47 | 1013.3 |
| 20260510172501 | 68 | 141 | 2.0 | 2.0 | 0.00 | 0.00 | 0.00 | 47 | 1013.3 |
| 20260510171958 | 67 | 123 | 0.0 | 0.0 | 0.00 | 0.00 | 0.00 | 47 | 1013.3 |
| 20260510171454 | 67 | 71 | 1.0 | 2.0 | 0.00 | 0.00 | 0.00 | 48 | 1013.1 |
| 20260510170950 | 66 | 103 | 1.0 | 1.0 | 0.00 | 0.00 | 0.00 | 49 | 1013.1 |
| 20260510170443 | 64 | 126 | 1.0 | 1.0 | 0.00 | 0.00 | 0.00 | 55 | 1013.3 |
| 20260510165938 | 65 | 120 | 1.0 | 1.0 | 0.00 | 0.00 | 0.00 | 54 | 1013.5 |
| 20260510165435 | 63 | 123 | 0.0 | 1.0 | 0.00 | 0.00 | 0.00 | 55 | 1013.3 |
| 20260510164931 | 64 | 192 | 1.0 | 2.0 | 0.00 | 0.00 | 0.00 | 54 | 1013.2 |
| 20260510164428 | 62 | 113 | 0.0 | 0.0 | 0.00 | 0.00 | 0.00 | 57 | 1013.4 |
| 20260510163923 | 64 | 97 | 1.0 | 2.0 | 0.00 | 0.00 | 0.00 | 52 | 1013.3 |
| 20260510163419 | 62 | 120 | 0.0 | 0.0 | 0.00 | 0.00 | 0.00 | 54 | 1013.4 |
| 20260510162914 | 62 | 125 | 0.0 | 0.0 | 0.00 | 0.00 | 0.00 | 53 | 1013.3 |
| 20260510162412 | 60 | 130 | 0.0 | 0.0 | 0.00 | 0.00 | 0.00 | 59 | 1013.5 |
| 20260510161907 | 59 | 116 | 0.0 | 0.0 | 0.00 | 0.00 | 0.00 | 60 | 1013.6 |
| 20260510161403 | 59 | 81 | 2.0 | 2.0 | 0.00 | 0.00 | 0.00 | 63 | 1013.9 |
| 20260510160859 | 59 | 131 | 0.0 | 0.0 | 0.00 | 0.00 | 0.00 | 61 | 1013.8 |
| 20260510160356 | 57 | 144 | 1.0 | 1.0 | 0.00 | 0.00 | 0.00 | 65 | 1014.0 |
| 20260510155850 | 58 | 155 | 0.0 | 0.0 | 0.00 | 0.00 | 0.00 | 63 | 1014.2 |
| 20260510155347 | 58 | 113 | 0.0 | 0.0 | 0.00 | 0.00 | 0.00 | 64 | 1014.2 |
| 20260510154843 | 57 | 102 | 1.0 | 2.0 | 0.00 | 0.00 | 0.00 | 63 | 1014.2 |
| 20260510154339 | 56 | 113 | 1.0 | 1.0 | 0.00 | 0.00 | 0.00 | 64 | 1014.3 |
| 20260510153834 | 57 | 134 | 0.0 | 0.0 | 0.00 | 0.00 | 0.00 | 64 | 1014.2 |
| 20260510153330 | 55 | 122 | 0.0 | 0.0 | 0.00 | 0.00 | 0.00 | 67 | 1014.5 |
| 20260510152827 | 54 | 102 | 1.0 | 1.0 | 0.00 | 0.00 | 0.00 | 69 | 1014.5 |
| 20260510152323 | 53 | 123 | 0.0 | 1.0 | 0.00 | 0.00 | 0.00 | 72 | 1014.5 |
| 20260510151820 | 52 | 142 | 1.0 | 1.0 | 0.00 | 0.00 | 0.00 | 73 | 1014.5 |
| 20260510151318 | 51 | 92 | 1.0 | 1.0 | 0.00 | 0.00 | 0.00 | 74 | 1014.6 |
| 20260510150808 | 51 | 93 | 1.0 | 1.0 | 0.00 | 0.00 | 0.00 | 75 | 1014.7 |
| 20260510150304 | 50 | 79 | 2.0 | 2.0 | 0.00 | 0.00 | 0.00 | 76 | 1014.7 |
| 20260510145759 | 49 | 97 | 1.0 | 1.0 | 0.00 | 0.00 | 0.00 | 78 | 1014.9 |
| 20260510145256 | 49 | 87 | 1.0 | 1.0 | 0.00 | 0.00 | 0.00 | 77 | 1014.7 |
| 20260510144753 | 49 | 100 | 1.0 | 1.0 | 0.00 | 0.00 | 0.00 | 79 | 1014.7 |
| 20260510144249 | 47 | 86 | 1.0 | 1.0 | 0.00 | 0.00 | 0.00 | 82 | 1014.5 |
| 20260510143744 | 47 | 63 | 0.0 | 0.0 | 0.00 | 0.00 | 0.00 | 81 | 1014.8 |
| 20260510143240 | 46 | 152 | 1.0 | 1.0 | 0.00 | 0.00 | 0.00 | 82 | 1014.8 |
| 20260510142737 | 46 | 116 | 0.0 | 0.0 | 0.00 | 0.00 | 0.00 | 81 | 1014.8 |
| 20260510142234 | 45 | 133 | 0.0 | 0.0 | 0.00 | 0.00 | 0.00 | 85 | 1014.9 |
| 20260510141731 | 44 | 143 | 0.0 | 0.0 | 0.00 | 0.00 | 0.00 | 87 | 1014.9 |
| 20260510141229 | 43 | 138 | 0.0 | 1.0 | 0.00 | 0.00 | 0.00 | 88 | 1014.7 |
| 20260510140726 | 42 | 175 | 0.0 | 1.0 | 0.00 | 0.00 | 0.00 | 88 | 1014.8 |
| 20260510140225 | 43 | 118 | 0.0 | 0.0 | 0.00 | 0.00 | 0.00 | 86 | 1014.7 |
| 20260510135714 | 42 | 128 | 0.0 | 0.0 | 0.00 | 0.00 | 0.00 | 87 | 1014.8 |
| 20260510135210 | 41 | 120 | 0.0 | 0.0 | 0.00 | 0.00 | 0.00 | 88 | 1014.9 |
| 20260510134708 | 40 | 134 | 0.0 | 0.0 | 0.00 | 0.00 | 0.00 | 90 | 1014.9 |
| 20260510134205 | 40 | 122 | 0.0 | 0.0 | 0.00 | 0.00 | 0.00 | 90 | 1015.0 |
| 20260510133700 | 41 | 120 | 0.0 | 0.0 | 0.00 | 0.00 | 0.00 | 90 | 1015.1 |
| 20260510133156 | 40 | 121 | 0.0 | 0.0 | 0.00 | 0.00 | 0.00 | 91 | 1015.0 |
| 20260510132652 | 40 | 115 | 0.0 | 0.0 | 0.00 | 0.00 | 0.00 | 91 | 1015.1 |
| 20260510132150 | 40 | 110 | 0.0 | 0.0 | 0.00 | 0.00 | 0.00 | 92 | 1015.1 |
| 20260510131648 | 39 | 139 | 0.0 | 0.0 | 0.00 | 0.00 | 0.00 | 92 | 1014.9 |
| 20260510131145 | 39 | 139 | 0.0 | 0.0 | 0.00 | 0.00 | 0.00 | 93 | 1015.1 |
| 20260510130641 | 39 | 127 | 0.0 | 0.0 | 0.00 | 0.00 | 0.00 | 93 | 1015.0 |
| 20260510130139 | 38 | 127 | 0.0 | 0.0 | 0.00 | 0.00 | 0.00 | 94 | 1014.9 |
| 20260510125635 | 38 | 147 | 0.0 | 0.0 | 0.00 | 0.00 | 0.00 | 94 | 1014.9 |
| 20260510125131 | 37 | 144 | 0.0 | 0.0 | 0.00 | 0.00 | 0.00 | 94 | 1015.0 |
| 20260510124628 | 37 | 131 | 0.0 | 0.0 | 0.00 | 0.00 | 0.00 | 94 | 1015.0 |
| 20260510124125 | 37 | 110 | 0.0 | 0.0 | 0.00 | 0.00 | 0.00 | 94 | 1014.9 |
| 20260510123620 | 37 | 123 | 0.0 | 0.0 | 0.00 | 0.00 | 0.00 | 94 | 1014.9 |
| 20260510123116 | 37 | 118 | 0.0 | 0.0 | 0.00 | 0.00 | 0.00 | 94 | 1015.0 |
| 20260510122613 | 37 | 123 | 0.0 | 0.0 | 0.00 | 0.00 | 0.00 | 94 | 1015.0 |
| 20260510122108 | 37 | 122 | 0.0 | 0.0 | 0.00 | 0.00 | 0.00 | 94 | 1014.9 |
| 20260510121606 | 37 | 122 | 0.0 | 0.0 | 0.00 | 0.00 | 0.00 | 94 | 1014.8 |
| 20260510121103 | 38 | 122 | 0.0 | 0.0 | 0.00 | 0.00 | 0.00 | 94 | 1015.0 |
| 20260510120601 | 37 | 140 | 0.0 | 0.0 | 0.00 | 0.00 | 0.00 | 93 | 1015.0 |
| 20260510120056 | 37 | 135 | 0.0 | 0.0 | 0.00 | 0.00 | 0.00 | 94 | 1015.2 |
| 20260510115553 | 38 | 115 | 0.0 | 0.0 | 0.00 | 0.00 | 0.00 | 94 | 1015.3 |
| 20260510115050 | 38 | 118 | 0.0 | 0.0 | 0.00 | 0.00 | 0.00 | 94 | 1015.0 |
| 20260510114546 | 38 | 114 | 0.0 | 0.0 | 0.00 | 0.00 | 0.00 | 94 | 1015.1 |
| 20260510114042 | 38 | 53 | 2.0 | 2.0 | 0.00 | 0.00 | 0.00 | 94 | 1015.2 |
| 20260510113537 | 39 | 139 | 0.0 | 0.0 | 0.00 | 0.00 | 0.00 | 94 | 1015.2 |
| 20260510113036 | 39 | 141 | 0.0 | 0.0 | 0.00 | 0.00 | 0.00 | 94 | 1015.2 |
| 20260510112532 | 39 | 140 | 0.0 | 0.0 | 0.00 | 0.00 | 0.00 | 94 | 1015.3 |
| 20260510112028 | 39 | 138 | 0.0 | 0.0 | 0.00 | 0.00 | 0.00 | 93 | 1015.2 |
| 20260510111525 | 39 | 138 | 0.0 | 0.0 | 0.00 | 0.00 | 0.00 | 93 | 1015.3 |
| 20260510111021 | 39 | 137 | 0.0 | 0.0 | 0.00 | 0.00 | 0.00 | 92 | 1015.3 |
| 20260510110517 | 39 | 137 | 0.0 | 0.0 | 0.00 | 0.00 | 0.00 | 92 | 1015.2 |
| 20260510110014 | 39 | 137 | 0.0 | 0.0 | 0.00 | 0.00 | 0.00 | 92 | 1015.3 |
| 20260510105509 | 39 | 138 | 0.0 | 0.0 | 0.00 | 0.00 | 0.00 | 92 | 1015.3 |
| 20260510105004 | 39 | 139 | 0.0 | 0.0 | 0.00 | 0.00 | 0.00 | 91 | 1015.5 |
| 20260510104501 | 39 | 120 | 0.0 | 0.0 | 0.00 | 0.00 | 0.00 | 92 | 1015.3 |
| 20260510103957 | 40 | 122 | 0.0 | 0.0 | 0.00 | 0.00 | 0.00 | 91 | 1015.1 |
| 20260510103455 | 40 | 122 | 0.0 | 0.0 | 0.00 | 0.00 | 0.00 | 91 | 1015.5 |
| 20260510102950 | 40 | 152 | 0.0 | 0.0 | 0.00 | 0.00 | 0.00 | 91 | 1015.5 |
| 20260510102446 | 40 | 152 | 0.0 | 0.0 | 0.00 | 0.00 | 0.00 | 91 | 1015.5 |
| 20260510101943 | 40 | 152 | 0.0 | 0.0 | 0.00 | 0.00 | 0.00 | 91 | 1015.5 |
| 20260510101441 | 41 | 158 | 0.0 | 0.0 | 0.00 | 0.00 | 0.00 | 92 | 1015.3 |
| 20260510100939 | 41 | 149 | 0.0 | 0.0 | 0.00 | 0.00 | 0.00 | 92 | 1015.3 |
| 20260510100435 | 41 | 117 | 0.0 | 0.0 | 0.00 | 0.00 | 0.00 | 92 | 1015.3 |
| 20260510095931 | 41 | 117 | 0.0 | 0.0 | 0.00 | 0.00 | 0.00 | 91 | 1015.6 |
| 20260510095427 | 41 | 117 | 0.0 | 0.0 | 0.00 | 0.00 | 0.00 | 90 | 1015.5 |
| 20260510094926 | 40 | 117 | 0.0 | 0.0 | 0.00 | 0.00 | 0.00 | 89 | 1015.3 |
| 20260510094421 | 41 | 117 | 0.0 | 0.0 | 0.00 | 0.00 | 0.00 | 89 | 1015.7 |
| 20260510093917 | 41 | 112 | 0.0 | 0.0 | 0.00 | 0.00 | 0.00 | 88 | 1015.6 |
| 20260510093413 | 41 | 111 | 0.0 | 0.0 | 0.00 | 0.00 | 0.00 | 89 | 1015.5 |
| 20260510092909 | 41 | 118 | 0.0 | 0.0 | 0.00 | 0.00 | 0.00 | 89 | 1015.8 |
| 20260510092407 | 41 | 137 | 0.0 | 0.0 | 0.00 | 0.00 | 0.00 | 89 | 1015.7 |
| 20260510091907 | 41 | 136 | 0.0 | 0.0 | 0.00 | 0.00 | 0.00 | 89 | 1015.8 |
| 20260510091404 | 42 | 136 | 0.0 | 0.0 | 0.00 | 0.00 | 0.00 | 89 | 1015.7 |
| 20260510090901 | 42 | 150 | 0.0 | 0.0 | 0.00 | 0.00 | 0.00 | 88 | 1015.6 |
| 20260510090357 | 42 | 152 | 0.0 | 0.0 | 0.00 | 0.00 | 0.00 | 89 | 1015.7 |
| 20260510085853 | 42 | 151 | 0.0 | 0.0 | 0.00 | 0.00 | 0.00 | 88 | 1015.7 |
| 20260510085348 | 42 | 132 | 0.0 | 0.0 | 0.00 | 0.00 | 0.00 | 88 | 1015.6 |
| 20260510084844 | 43 | 144 | 0.0 | 0.0 | 0.00 | 0.00 | 0.00 | 88 | 1015.7 |
| 20260510084341 | 43 | 157 | 1.0 | 1.0 | 0.00 | 0.00 | 0.00 | 87 | 1015.6 |
| 20260510083838 | 43 | 133 | 0.0 | 0.0 | 0.00 | 0.00 | 0.00 | 86 | 1015.6 |
| 20260510083334 | 43 | 134 | 0.0 | 0.0 | 0.00 | 0.00 | 0.00 | 85 | 1015.6 |
| 20260510082830 | 43 | 104 | 1.0 | 1.0 | 0.00 | 0.00 | 0.00 | 84 | 1015.5 |
| 20260510082327 | 43 | 125 | 0.0 | 0.0 | 0.00 | 0.00 | 0.00 | 85 | 1015.5 |
| 20260510081826 | 43 | 125 | 0.0 | 0.0 | 0.00 | 0.00 | 0.00 | 85 | 1015.8 |
| 20260510081322 | 44 | 126 | 0.0 | 0.0 | 0.00 | 0.00 | 0.00 | 84 | 1015.8 |
| 20260510080819 | 44 | 124 | 0.0 | 0.0 | 0.00 | 0.00 | 0.00 | 84 | 1015.5 |
| 20260510080313 | 44 | 126 | 0.0 | 0.0 | 0.00 | 0.00 | 0.00 | 86 | 1015.8 |
| 20260510075811 | 44 | 125 | 0.0 | 0.0 | 0.00 | 0.00 | 0.00 | 86 | 1015.8 |
| 20260510075308 | 44 | 125 | 0.0 | 0.0 | 0.00 | 0.00 | 0.00 | 86 | 1015.5 |
| 20260510074805 | 44 | 125 | 0.0 | 0.0 | 0.00 | 0.00 | 0.00 | 85 | 1015.6 |
| 20260510074302 | 44 | 125 | 0.0 | 0.0 | 0.00 | 0.00 | 0.00 | 83 | 1015.7 |
| 20260510073758 | 44 | 108 | 0.0 | 0.0 | 0.00 | 0.00 | 0.00 | 83 | 1015.5 |
| 20260510073254 | 44 | 113 | 0.0 | 0.0 | 0.00 | 0.00 | 0.00 | 82 | 1015.5 |
| 20260510072749 | 45 | 146 | 0.0 | 0.0 | 0.00 | 0.00 | 0.00 | 81 | 1015.7 |
| 20260510072246 | 45 | 142 | 0.0 | 0.0 | 0.00 | 0.00 | 0.00 | 81 | 1015.6 |
| 20260510071743 | 45 | 148 | 0.0 | 0.0 | 0.00 | 0.00 | 0.00 | 81 | 1015.7 |
| 20260510071239 | 45 | 147 | 0.0 | 0.0 | 0.00 | 0.00 | 0.00 | 81 | 1015.9 |
| 20260510070738 | 46 | 148 | 0.0 | 0.0 | 0.00 | 0.00 | 0.00 | 80 | 1015.6 |
| 20260510070235 | 46 | 147 | 0.0 | 0.0 | 0.00 | 0.00 | 0.00 | 80 | 1015.7 |
| 20260510065729 | 46 | 147 | 0.0 | 0.0 | 0.00 | 0.00 | 0.00 | 80 | 1015.6 |
| 20260510065226 | 46 | 148 | 0.0 | 0.0 | 0.00 | 0.00 | 0.00 | 80 | 1015.7 |
| 20260510064723 | 46 | 149 | 0.0 | 0.0 | 0.00 | 0.00 | 0.00 | 81 | 1015.6 |
| 20260510064221 | 47 | 149 | 0.0 | 0.0 | 0.00 | 0.00 | 0.00 | 81 | 1015.6 |
| 20260510063717 | 47 | 149 | 0.0 | 0.0 | 0.00 | 0.00 | 0.00 | 82 | 1015.6 |
| 20260510063213 | 48 | 149 | 0.0 | 0.0 | 0.00 | 0.00 | 0.00 | 81 | 1015.6 |
| 20260510062710 | 48 | 149 | 0.0 | 0.0 | 0.00 | 0.00 | 0.00 | 81 | 1015.7 |
| 20260510062206 | 48 | 149 | 0.0 | 0.0 | 0.00 | 0.00 | 0.00 | 81 | 1015.8 |
| 20260510061701 | 48 | 150 | 0.0 | 0.0 | 0.00 | 0.00 | 0.00 | 80 | 1015.7 |
| 20260510061159 | 48 | 150 | 0.0 | 0.0 | 0.00 | 0.00 | 0.00 | 81 | 1015.7 |
| 20260510060655 | 48 | 150 | 0.0 | 0.0 | 0.00 | 0.00 | 0.00 | 80 | 1015.7 |
| 20260510060151 | 48 | 155 | 0.0 | 0.0 | 0.00 | 0.00 | 0.00 | 81 | 1015.7 |
| 20260510055648 | 49 | 130 | 0.0 | 0.0 | 0.00 | 0.00 | 0.00 | 80 | 1015.6 |
| 20260510055146 | 50 | 150 | 0.0 | 0.0 | 0.00 | 0.00 | 0.00 | 77 | 1015.9 |
| 20260510054641 | 50 | 141 | 0.0 | 0.0 | 0.00 | 0.00 | 0.00 | 71 | 1015.7 |
| 20260510054137 | 51 | 142 | 0.0 | 0.0 | 0.00 | 0.00 | 0.00 | 66 | 1015.8 |
| 20260510053636 | 52 | 157 | 1.0 | 1.0 | 0.00 | 0.00 | 0.00 | 65 | 1015.8 |
| 20260510053133 | 52 | 74 | 2.0 | 2.0 | 0.00 | 0.00 | 0.00 | 65 | 1015.8 |
| 20260510052629 | 52 | 106 | 1.0 | 1.0 | 0.00 | 0.00 | 0.00 | 67 | 1015.7 |
| 20260510052126 | 52 | 82 | 2.0 | 2.0 | 0.00 | 0.00 | 0.00 | 67 | 1015.9 |
| 20260510051621 | 52 | 103 | 1.0 | 1.0 | 0.00 | 0.00 | 0.00 | 68 | 1015.6 |
| 20260510051118 | 52 | 130 | 0.0 | 0.0 | 0.00 | 0.00 | 0.00 | 68 | 1015.8 |
| 20260510050615 | 52 | 134 | 0.0 | 0.0 | 0.00 | 0.00 | 0.00 | 66 | 1015.9 |
| 20260510050112 | 53 | 131 | 0.0 | 0.0 | 0.00 | 0.00 | 0.00 | 65 | 1015.6 |
| 20260510045604 | 53 | 157 | 0.0 | 1.0 | 0.00 | 0.00 | 0.00 | 62 | 1016.0 |
| 20260510045100 | 54 | 137 | 0.0 | 1.0 | 0.00 | 0.00 | 0.00 | 61 | 1015.7 |
| 20260510044556 | 53 | 89 | 1.0 | 1.0 | 0.00 | 0.00 | 0.00 | 60 | 1015.8 |
| 20260510044054 | 54 | 70 | 1.0 | 2.0 | 0.00 | 0.00 | 0.00 | 62 | 1015.9 |
| 20260510043549 | 54 | 138 | 0.0 | 0.0 | 0.00 | 0.00 | 0.00 | 62 | 1015.9 |
| 20260510043045 | 55 | 128 | 0.0 | 0.0 | 0.00 | 0.00 | 0.00 | 62 | 1015.7 |
| 20260510042538 | 55 | 108 | 1.0 | 1.0 | 0.00 | 0.00 | 0.00 | 60 | 1015.7 |
| 20260510042034 | 55 | 120 | 0.0 | 0.0 | 0.00 | 0.00 | 0.00 | 61 | 1015.7 |
| 20260510041531 | 55 | 110 | 0.0 | 0.0 | 0.00 | 0.00 | 0.00 | 61 | 1015.6 |
| 20260510041028 | 56 | 151 | 0.0 | 1.0 | 0.00 | 0.00 | 0.00 | 60 | 1015.7 |
| 20260510040520 | 56 | 226 | 0.0 | 1.0 | 0.00 | 0.00 | 0.00 | 59 | 1015.7 |
| 20260510040015 | 57 | 124 | 0.0 | 0.0 | 0.00 | 0.00 | 0.00 | 59 | 1015.6 |
| 20260510035512 | 58 | 111 | 0.0 | 0.0 | 0.00 | 0.00 | 0.00 | 56 | 1015.1 |
| 20260510035011 | 57 | 242 | 0.0 | 1.0 | 0.00 | 0.00 | 0.00 | 58 | 1015.3 |
| 20260510034510 | 58 | 122 | 0.0 | 0.0 | 0.00 | 0.00 | 0.00 | 56 | 1015.3 |
| 20260510034006 | 59 | 121 | 0.0 | 0.0 | 0.00 | 0.00 | 0.00 | 55 | 1015.1 |
| 20260510033501 | 60 | 92 | 1.0 | 1.0 | 0.00 | 0.00 | 0.00 | 54 | 1015.1 |
| 20260510033000 | 60 | 113 | 0.0 | 0.0 | 0.00 | 0.00 | 0.00 | 51 | 1015.0 |
| 20260510032456 | 61 | 254 | 1.0 | 2.0 | 0.00 | 0.00 | 0.00 | 49 | 1014.9 |
| 20260510031951 | 61 | 163 | 0.0 | 0.0 | 0.00 | 0.00 | 0.00 | 50 | 1015.1 |
| 20260510031447 | 62 | 31 | 2.0 | 2.0 | 0.00 | 0.00 | 0.00 | 46 | 1015.0 |
| 20260510030943 | 62 | 149 | 1.0 | 1.0 | 0.00 | 0.00 | 0.00 | 50 | 1014.9 |
| 20260510030438 | 62 | 89 | 1.0 | 1.0 | 0.00 | 0.00 | 0.00 | 48 | 1014.9 |
| 20260510025936 | 62 | 92 | 1.0 | 1.0 | 0.00 | 0.00 | 0.00 | 49 | 1014.8 |
| 20260510025433 | 63 | 75 | 1.0 | 1.0 | 0.00 | 0.00 | 0.00 | 48 | 1014.7 |
| 20260510024931 | 63 | 81 | 1.0 | 1.0 | 0.00 | 0.00 | 0.00 | 46 | 1014.7 |
| 20260510024427 | 63 | 113 | 0.0 | 1.0 | 0.00 | 0.00 | 0.00 | 49 | 1014.6 |
| 20260510023923 | 63 | 116 | 0.0 | 0.0 | 0.00 | 0.00 | 0.00 | 52 | 1014.7 |
| 20260510023419 | 64 | 93 | 0.0 | 1.0 | 0.00 | 0.00 | 0.00 | 50 | 1014.7 |
| 20260510022917 | 66 | 102 | 0.0 | 0.0 | 0.00 | 0.00 | 0.00 | 48 | 1014.5 |
| 20260510022415 | 69 | 168 | 0.0 | 0.0 | 0.00 | 0.00 | 0.00 | 43 | 1014.6 |
| 20260510021915 | 70 | 231 | 1.0 | 1.0 | 0.00 | 0.00 | 0.00 | 36 | 1014.7 |
| 20260510021413 | 71 | 108 | 1.0 | 2.0 | 0.00 | 0.00 | 0.00 | 33 | 1014.5 |
| 20260510020909 | 72 | 175 | 1.0 | 1.0 | 0.00 | 0.00 | 0.00 | 30 | 1014.9 |
| 20260510020404 | 73 | 184 | 2.0 | 2.0 | 0.00 | 0.00 | 0.00 | 29 | 1014.8 |
| 20260510015900 | 73 | 151 | 1.0 | 1.0 | 0.00 | 0.00 | 0.00 | 29 | 1014.8 |
| 20260510015356 | 73 | 142 | 2.0 | 2.0 | 0.00 | 0.00 | 0.00 | 28 | 1014.7 |
| 20260510014851 | 74 | 240 | 2.0 | 2.0 | 0.00 | 0.00 | 0.00 | 28 | 1014.7 |
| 20260510014349 | 75 | 175 | 1.0 | 1.0 | 0.00 | 0.00 | 0.00 | 28 | 1014.6 |
| 20260510013845 | 75 | 132 | 1.0 | 1.0 | 0.00 | 0.00 | 0.00 | 29 | 1014.8 |
| 20260510013341 | 75 | 164 | 1.0 | 1.0 | 0.00 | 0.00 | 0.00 | 29 | 1014.7 |
| 20260510012836 | 76 | 147 | 1.0 | 1.0 | 0.00 | 0.00 | 0.00 | 30 | 1014.8 |
| 20260510012335 | 75 | 202 | 2.0 | 2.0 | 0.00 | 0.00 | 0.00 | 30 | 1015.0 |
| 20260510011830 | 75 | 332 | 2.0 | 2.0 | 0.00 | 0.00 | 0.00 | 27 | 1014.8 |
| 20260510011326 | 75 | 76 | 2.0 | 3.0 | 0.00 | 0.00 | 0.00 | 30 | 1014.8 |
| 20260510010823 | 75 | 55 | 3.0 | 3.0 | 0.00 | 0.00 | 0.00 | 31 | 1014.9 |
| 20260510010320 | 75 | 85 | 1.0 | 1.0 | 0.00 | 0.00 | 0.00 | 32 | 1014.7 |
| 20260510005817 | 77 | 69 | 2.0 | 4.0 | 0.00 | 0.00 | 0.00 | 31 | 1015.0 |
| 20260510005313 | 75 | 173 | 1.0 | 1.0 | 0.00 | 0.00 | 0.00 | 33 | 1014.8 |
| 20260510004811 | 75 | 126 | 1.0 | 1.0 | 0.00 | 0.00 | 0.00 | 33 | 1014.9 |
| 20260510004308 | 75 | 58 | 2.0 | 2.0 | 0.00 | 0.00 | 0.00 | 32 | 1014.8 |
| 20260510003806 | 76 | 140 | 0.0 | 1.0 | 0.00 | 0.00 | 0.00 | 33 | 1014.9 |
| 20260510003302 | 77 | 145 | 1.0 | 1.0 | 0.00 | 0.00 | 0.00 | 33 | 1015.0 |
| 20260510002801 | 77 | 110 | 1.0 | 2.0 | 0.00 | 0.00 | 0.00 | 33 | 1014.8 |
| 20260510002259 | 76 | 131 | 0.0 | 0.0 | 0.00 | 0.00 | 0.00 | 34 | 1014.9 |
| 20260510001755 | 76 | 149 | 1.0 | 1.0 | 0.00 | 0.00 | 0.00 | 33 | 1014.8 |
| 20260510001254 | 76 | 167 | 2.0 | 2.0 | 0.00 | 0.00 | 0.00 | 33 | 1014.9 |
| 20260510000749 | 77 | 99 | 1.0 | 2.0 | 0.00 | 0.00 | 0.00 | 32 | 1014.8 |
| 20260510000248 | 78 | 135 | 0.0 | 0.0 | 0.00 | 0.00 | 0.00 | 33 | 1014.9 |
| 20260509235744 | 77 | 157 | 0.0 | 0.0 | 0.00 | 0.00 | 0.00 | 32 | 1014.9 |
| 20260509235240 | 75 | 141 | 0.0 | 1.0 | 0.00 | 0.00 | 0.00 | 34 | 1014.9 |
| 20260509234736 | 75 | 78 | 3.0 | 3.0 | 0.00 | 0.00 | 0.00 | 34 | 1015.0 |
| 20260509234233 | 76 | 108 | 1.0 | 1.0 | 0.00 | 0.00 | 0.00 | 34 | 1015.0 |
| 20260509233731 | 75 | 96 | 1.0 | 1.0 | 0.00 | 0.00 | 0.00 | 34 | 1015.1 |
| 20260509233228 | 76 | 139 | 1.0 | 2.0 | 0.00 | 0.00 | 0.00 | 34 | 1015.1 |
| 20260509232724 | 76 | 119 | 1.0 | 1.0 | 0.00 | 0.00 | 0.00 | 33 | 1014.9 |
| 20260509232222 | 77 | 160 | 2.0 | 2.0 | 0.00 | 0.00 | 0.00 | 33 | 1014.9 |
| 20260509231718 | 78 | 165 | 1.0 | 1.0 | 0.00 | 0.00 | 0.00 | 31 | 1015.2 |
| 20260509231215 | 76 | 155 | 0.0 | 0.0 | 0.00 | 0.00 | 0.00 | 32 | 1015.3 |
| 20260509230713 | 75 | 144 | 2.0 | 2.0 | 0.00 | 0.00 | 0.00 | 35 | 1015.1 |
| 20260509230209 | 76 | 153 | 1.0 | 2.0 | 0.00 | 0.00 | 0.00 | 33 | 1015.2 |
| 20260509225705 | 76 | 151 | 2.0 | 4.0 | 0.00 | 0.00 | 0.00 | 34 | 1015.3 |
| 20260509225201 | 75 | 131 | 1.0 | 1.0 | 0.00 | 0.00 | 0.00 | 34 | 1015.1 |
| 20260509224656 | 77 | 175 | 2.0 | 3.0 | 0.00 | 0.00 | 0.00 | 34 | 1015.7 |
| 20260509224154 | 76 | 144 | 1.0 | 2.0 | 0.00 | 0.00 | 0.00 | 34 | 1015.2 |
| 20260509223651 | 76 | 120 | 3.0 | 3.0 | 0.00 | 0.00 | 0.00 | 34 | 1015.2 |
| 20260509223148 | 74 | 116 | 2.0 | 3.0 | 0.00 | 0.00 | 0.00 | 35 | 1015.5 |
| 20260509222644 | 75 | 152 | 0.0 | 0.0 | 0.00 | 0.00 | 0.00 | 37 | 1015.6 |
| 20260509222140 | 74 | 127 | 1.0 | 2.0 | 0.00 | 0.00 | 0.00 | 36 | 1015.6 |
| 20260509221636 | 74 | 148 | 1.0 | 1.0 | 0.00 | 0.00 | 0.00 | 35 | 1015.7 |
| 20260509221132 | 75 | 134 | 1.0 | 2.0 | 0.00 | 0.00 | 0.00 | 36 | 1015.6 |
| 20260509220628 | 75 | 118 | 3.0 | 4.0 | 0.00 | 0.00 | 0.00 | 36 | 1015.9 |
| 20260509220124 | 75 | 142 | 2.0 | 2.0 | 0.00 | 0.00 | 0.00 | 36 | 1015.9 |
| 20260509215620 | 72 | 111 | 1.0 | 1.0 | 0.00 | 0.00 | 0.00 | 38 | 1015.9 |
| 20260509215117 | 74 | 143 | 1.0 | 2.0 | 0.00 | 0.00 | 0.00 | 39 | 1016.0 |
| 20260509214614 | 74 | 157 | 3.0 | 3.0 | 0.00 | 0.00 | 0.00 | 36 | 1016.0 |
| 20260509214111 | 73 | 147 | 0.0 | 0.0 | 0.00 | 0.00 | 0.00 | 38 | 1016.0 |
| 20260509213607 | 73 | 89 | 3.0 | 4.0 | 0.00 | 0.00 | 0.00 | 36 | 1016.1 |
| 20260509213104 | 72 | 123 | 2.0 | 3.0 | 0.00 | 0.00 | 0.00 | 39 | 1016.3 |
| 20260509212601 | 72 | 76 | 1.0 | 3.0 | 0.00 | 0.00 | 0.00 | 38 | 1016.1 |
| 20260509212058 | 73 | 143 | 1.0 | 1.0 | 0.00 | 0.00 | 0.00 | 38 | 1016.3 |
| 20260509211554 | 74 | 146 | 0.0 | 0.0 | 0.00 | 0.00 | 0.00 | 37 | 1016.1 |
| 20260509211050 | 74 | 145 | 0.0 | 1.0 | 0.00 | 0.00 | 0.00 | 38 | 1016.3 |
| 20260509210548 | 74 | 147 | 1.0 | 2.0 | 0.00 | 0.00 | 0.00 | 36 | 1016.5 |
| 20260509210044 | 73 | 124 | 3.0 | 3.0 | 0.00 | 0.00 | 0.00 | 36 | 1016.5 |
| 20260509205544 | 71 | 181 | 1.0 | 1.0 | 0.00 | 0.00 | 0.00 | 36 | 1016.3 |
| 20260509205039 | 71 | 49 | 2.0 | 3.0 | 0.00 | 0.00 | 0.00 | 37 | 1016.6 |
| 20260509204536 | 72 | 173 | 1.0 | 1.0 | 0.00 | 0.00 | 0.00 | 36 | 1016.6 |
| 20260509204032 | 71 | 114 | 1.0 | 1.0 | 0.00 | 0.00 | 0.00 | 38 | 1016.8 |
| 20260509203528 | 72 | 139 | 2.0 | 3.0 | 0.00 | 0.00 | 0.00 | 36 | 1016.5 |
| 20260509203027 | 71 | 35 | 2.0 | 4.0 | 0.00 | 0.00 | 0.00 | 37 | 1016.4 |
| 20260509202521 | 72 | 88 | 1.0 | 2.0 | 0.00 | 0.00 | 0.00 | 36 | 1016.6 |
| 20260509202017 | 71 | 145 | 1.0 | 1.0 | 0.00 | 0.00 | 0.00 | 37 | 1016.6 |
| 20260509201512 | 70 | 86 | 2.0 | 3.0 | 0.00 | 0.00 | 0.00 | 38 | 1017.0 |
| 20260509201009 | 69 | 331 | 2.0 | 3.0 | 0.00 | 0.00 | 0.00 | 39 | 1016.9 |
| 20260509200504 | 70 | 127 | 3.0 | 3.0 | 0.00 | 0.00 | 0.00 | 40 | 1017.0 |
| 20260509200001 | 69 | 46 | 2.0 | 2.0 | 0.00 | 0.00 | 0.00 | 40 | 1017.2 |
| 20260509195456 | 69 | 81 | 3.0 | 6.0 | 0.00 | 0.00 | 0.00 | 42 | 1017.2 |
| 20260509194955 | 69 | 70 | 4.0 | 4.0 | 0.00 | 0.00 | 0.00 | 41 | 1017.3 |
| 20260509194451 | 70 | 132 | 0.0 | 0.0 | 0.00 | 0.00 | 0.00 | 40 | 1017.1 |
| 20260509193948 | 68 | 107 | 3.0 | 3.0 | 0.00 | 0.00 | 0.00 | 40 | 1017.4 |
| 20260509193443 | 68 | 150 | 2.0 | 3.0 | 0.00 | 0.00 | 0.00 | 41 | 1017.6 |
| 20260509192939 | 68 | 209 | 3.0 | 3.0 | 0.00 | 0.00 | 0.00 | 41 | 1017.6 |
| 20260509192436 | 70 | 135 | 3.0 | 4.0 | 0.00 | 0.00 | 0.00 | 40 | 1017.6 |
| 20260509191931 | 69 | 109 | 0.0 | 0.0 | 0.00 | 0.00 | 0.00 | 40 | 1017.7 |
| 20260509191426 | 68 | 116 | 0.0 | 1.0 | 0.00 | 0.00 | 0.00 | 40 | 1017.7 |
| 20260509190922 | 67 | 89 | 0.0 | 1.0 | 0.00 | 0.00 | 0.00 | 42 | 1017.8 |
| 20260509190420 | 67 | 151 | 2.0 | 2.0 | 0.00 | 0.00 | 0.00 | 42 | 1017.7 |
| 20260509185918 | 67 | 135 | 2.0 | 2.0 | 0.00 | 0.00 | 0.00 | 42 | 1017.7 |
| 20260509185415 | 67 | 127 | 1.0 | 3.0 | 0.00 | 0.00 | 0.00 | 43 | 1017.9 |
| 20260509184911 | 66 | 87 | 3.0 | 3.0 | 0.00 | 0.00 | 0.00 | 42 | 1018.1 |
| 20260509184408 | 67 | 141 | 0.0 | 1.0 | 0.00 | 0.00 | 0.00 | 41 | 1018.3 |
| 20260509183905 | 66 | 136 | 1.0 | 1.0 | 0.00 | 0.00 | 0.00 | 44 | 1018.1 |
| 20260509183359 | 66 | 96 | 2.0 | 3.0 | 0.00 | 0.00 | 0.00 | 43 | 1018.1 |
| 20260509182856 | 65 | 182 | 4.0 | 4.0 | 0.00 | 0.00 | 0.00 | 43 | 1018.3 |
| 20260509182353 | 67 | 163 | 6.0 | 7.0 | 0.00 | 0.00 | 0.00 | 44 | 1018.2 |
| 20260509181850 | 65 | 146 | 3.0 | 3.0 | 0.00 | 0.00 | 0.00 | 46 | 1018.3 |
| 20260509181347 | 65 | 144 | 1.0 | 2.0 | 0.00 | 0.00 | 0.00 | 43 | 1018.3 |
| 20260509180845 | 65 | 131 | 4.0 | 6.0 | 0.00 | 0.00 | 0.00 | 45 | 1018.4 |
| 20260509180341 | 64 | 164 | 4.0 | 6.0 | 0.00 | 0.00 | 0.00 | 45 | 1018.4 |
| 20260509175838 | 64 | 125 | 2.0 | 3.0 | 0.00 | 0.00 | 0.00 | 49 | 1018.5 |
| 20260509175334 | 63 | 128 | 3.0 | 3.0 | 0.00 | 0.00 | 0.00 | 48 | 1018.4 |
| 20260509174830 | 63 | 126 | 2.0 | 2.0 | 0.00 | 0.00 | 0.00 | 49 | 1018.6 |
| 20260509174326 | 64 | 173 | 5.0 | 7.0 | 0.00 | 0.00 | 0.00 | 47 | 1018.5 |
| 20260509173822 | 63 | 101 | 1.0 | 1.0 | 0.00 | 0.00 | 0.00 | 48 | 1018.5 |